This is the latest recevied weather packets stored in our database for station/object WE3WEE. If no packets are shown the sender has not sent any weather packets the latest 1 day(s).
| Time | Temp. | Humidity | Pressure | Rain* | Wind** | Luminosity | Snow |
|---|---|---|---|---|---|---|---|
| 1778019118 | 23.89° C | 46% | 1007.5 hPa | 0 mm | - | - | - |
| 1778017908 | 23.89° C | 45% | 1006.5 hPa | 0 mm | - | - | - |
| 1778017606 | 23.89° C | 46% | 1006.5 hPa | 0 mm | - | - | - |
| 1778016697 | 24.44° C | 44% | 1007.5 hPa | 0 mm | - | - | - |
| 1778014878 | 23.89° C | 45% | 1006.5 hPa | 0 mm | - | - | - |
| 1778013668 | 24.44° C | 44% | 1007.5 hPa | 0 mm | - | - | - |
| 1778012757 | 24.44° C | 43% | 1006.5 hPa | 0 mm | - | - | - |
| 1778012150 | 24.44° C | 43% | 1006.5 hPa | 0 mm | - | - | - |
| 1778011848 | 24.44° C | 42% | 1006.5 hPa | 0 mm | - | - | - |
| 1778008819 | 25° C | 45% | 1007.5 hPa | 0 mm | - | - | - |
| 1778008517 | 25° C | 46% | 1007.5 hPa | 0 mm | - | - | - |
| 1778006089 | 25° C | 47% | 1007.5 hPa | 0 mm | - | - | - |
| 1778002146 | 24.44° C | 51% | 1008.5 hPa | 0 mm | - | - | - |
| 1778001844 | 24.44° C | 50% | 1008.5 hPa | 0 mm | - | - | - |
| 1778000634 | 24.44° C | 51% | 1008.5 hPa | 0 mm | - | - | - |
| 1778000329 | 23.89° C | 53% | 1008.5 hPa | 0 mm | - | - | - |
| 1777999116 | 23.89° C | 52% | 1008.5 hPa | 0 mm | - | - | - |
| 1777997300 | 23.89° C | 55% | 1009.6 hPa | 0 mm | - | - | - |
| 1777995783 | 23.33° C | 53% | 1009.6 hPa | 0 mm | - | - | - |
| 1777993962 | 22.78° C | 54% | 1009.6 hPa | 0 mm | - | - | - |
| 1777993356 | 22.78° C | 58% | 1009.6 hPa | 0 mm | - | - | - |
* Rain latest hour (hover to see other rain measurements)
** Current wind speed in m/s (hover to see current wind gust speed)